Location: Boiro
(42.6475°N, 8.8834°W)
Time: 18:46:38
(UTC+01:00)

Tiros 1 despin weight - Pass Details

Date: 30 November 2021
Orbit: 592 x 641 km, 48.2° (Epoch: 20 January)

Event Time Altitude Azimuth Distance (km) Brightness Sun altitude
Rises 20:19:28 0° 294° (WNW) 2,826 ? -24.4°
Reaches altitude 10° 20:21:47 10° 298° (WNW) 1,926 ? -24.9°
Enters shadow 20:25:13 47° 331° (NNW) 789 ? -25.5°
Maximum altitude 20:26:08 59° 18° (NNE) 694 - -25.7°
Drops below altitude 10° 20:30:32 10° 99° (E) 1,940 - -26.5°
Sets 20:32:52 0° 103° (ESE) 2,849 - -26.9°
